Weather History for PABA - January, 2013

Change the Weather History Date:

Sunday, January 13, 2013

  Actual Average Record
Temperature  
Mean Temperature -3 °F -  
Max Temperature 1 °F -1 °F 23 °F (2002)
Min Temperature -9 °F -11 °F -33 °F (2008)
Degree Days  
Heating Degree Days 68    
Moisture  
Dew Point -3 °F    
Average Humidity 87    
Maximum Humidity 92    
Minimum Humidity 78    
Precipitation  
Precipitation 0.00 in - - ()
Sea Level Pressure  
Sea Level Pressure 29.84 in    
Wind  
Wind Speed 33 mph (East)    
Max Wind Speed 45 mph    
Max Gust Speed 54 mph    
Visibility 1 miles    
Events Fog , Snow    
Averages and records for this station are not official NWS values.
T = Trace of Precipitation, MM = Missing Value Source: NWS Daily Summary

Daily Weather History Graph

Daily Weather History Graph

Search for Another Location

Airport or City:

Trip Planner

Search our weather history database for the weather conditions in past years. The results will help you decide how hot, cold, wet, or windy it might be!

Date:

Astronomy

Jan. 13, 2013 Rise Set
Actual Time 12:10 PM AKST 1:15 PM AKST
Civil Twilight 9:58 AM AKST 3:29 PM AKST
Nautical Twilight 8:23 AM AKST 5:03 PM AKST
Astronomical Twilight 7:07 AM AKST 6:19 PM AKST
Moon 10:22 AM AKST (1/13) 7:10 PM AKST (1/13)
Length of Visible Light 5h 31m
Length of Day
1h 04m
Waxing Crescent, 6% of the Moon is Illuminated
Jan 13
Waxing Crescent
Jan 18
First Quarter
Jan 26
Full
Feb 3
Last Quarter
Feb 9
New

Hourly Weather History & Observations

Time (AKST) Temp. Windchill Dew Point Humidity Pressure Visibility Wind Dir Wind Speed Gust Speed Precip Events Conditions
12:01 AM -9.9 °F -40.5 °F -13.0 °F 86% 30.14 in 1.2 mi East 33.4 mph 39.1 mph 0.00 in Snow Light Snow
12:12 AM -9.4 °F -40.5 °F -13.0 °F 84% 30.14 in 1.0 mi East 35.7 mph 40.3 mph 0.00 in Snow Light Snow
12:30 AM -7.6 °F -35.7 °F -11.2 °F 84% 30.14 in 1.2 mi East 28.8 mph 38.0 mph 0.00 in Snow Light Snow
1:01 AM -7.1 °F -33.7 °F -11.0 °F 83% 30.14 in 1.5 mi East 25.3 mph - 0.00 in Snow Light Snow
1:23 AM -5.8 °F -32.4 °F -9.4 °F 84% 30.13 in 1.0 mi East 26.5 mph - 0.00 in Snow Light Snow
2:01 AM -5.8 °F -34.1 °F -9.4 °F 84% 30.11 in 1.2 mi East 31.1 mph 36.8 mph 0.00 in Snow Light Snow
2:09 AM -5.8 °F -34.1 °F -9.4 °F 84% 30.09 in 1.0 mi East 31.1 mph 38.0 mph 0.00 in Snow Light Snow
2:20 AM -5.8 °F -35.2 °F -9.4 °F 84% 30.08 in 0.8 mi East 34.5 mph 42.6 mph 0.00 in Snow Light Snow
3:01 AM -4.0 °F -32.4 °F -8.0 °F 83% 30.04 in 0.8 mi East 33.4 mph 44.9 mph 0.00 in Snow Light Snow
3:57 AM -2.2 °F -31.3 °F -7.6 °F 78% 29.99 in 0.5 mi East 38.0 mph 43.7 mph 0.00 in Fog , Snow Light Snow
4:01 AM -2.9 °F -31.3 °F -7.1 °F 82% 29.99 in 0.5 mi East 34.5 mph 43.7 mph 0.00 in Fog , Snow Light Snow
4:12 AM -2.2 °F -29.6 °F -5.8 °F 85% 29.98 in 0.5 mi East 32.2 mph 44.9 mph 0.00 in Fog , Snow Light Snow
4:23 AM -2.2 °F -30.3 °F -5.8 °F 85% 29.98 in 0.8 mi East 34.5 mph 40.3 mph 0.00 in Snow Light Snow
4:49 AM -2.2 °F -29.2 °F -5.8 °F 85% 29.96 in 1.0 mi East 31.1 mph 40.3 mph 0.00 in Snow Light Snow
5:01 AM -2.2 °F -29.9 °F -5.8 °F 85% 29.93 in 0.8 mi East 33.4 mph 41.4 mph 0.00 in Snow Light Snow
5:07 AM -2.0 °F -29.3 °F -5.1 °F 87% 29.93 in 0.8 mi East 32.2 mph 41.4 mph 0.00 in Snow Light Snow
5:49 AM -0.4 °F -27.8 °F -4.0 °F 85% 29.91 in 1.0 mi East 34.5 mph 44.9 mph 0.00 in Snow Light Snow
6:01 AM -0.4 °F -28.1 °F -4.0 °F 85% 29.91 in 0.8 mi East 35.7 mph 42.6 mph 0.00 in Snow Light Snow
6:33 AM -0.4 °F -27.5 °F -4.0 °F 85% 29.88 in 0.5 mi East 33.4 mph 49.5 mph 0.00 in Fog , Snow Light Snow
6:40 AM -0.4 °F -28.5 °F -4.0 °F 85% 29.87 in 0.8 mi East 36.8 mph 44.9 mph 0.00 in Snow Light Snow
6:46 AM -0.9 °F -29.8 °F -4.0 °F 87% 29.86 in 0.8 mi East 39.1 mph 44.9 mph 0.00 in Snow Light Snow
7:01 AM -0.9 °F -30.4 °F -4.0 °F 87% 29.85 in 0.8 mi East 41.4 mph 49.5 mph 0.00 in Snow Light Snow
8:01 AM 1.0 °F -28.5 °F -2.0 °F 87% 29.79 in 0.8 mi East 44.9 mph 52.9 mph 0.00 in Snow Light Snow
9:01 AM 1.4 °F -26.9 °F -2.2 °F 85% 29.76 in 1.0 mi East 40.3 mph 54.1 mph 0.00 in Snow Light Snow
9:16 AM 1.0 °F -27.1 °F -2.0 °F 87% 29.75 in 1.0 mi East 39.1 mph 48.3 mph 0.00 in Snow Light Snow
9:57 AM 1.4 °F -26.6 °F -0.4 °F 92% 29.73 in 0.8 mi East 39.1 mph 46.0 mph 0.00 in Snow Light Snow
10:01 AM 1.9 °F -26.4 °F -0.9 °F 88% 29.73 in 0.8 mi East 41.4 mph 47.2 mph 0.00 in Snow Light Snow
10:20 AM 1.4 °F -26.6 °F -0.4 °F 92% 29.72 in 0.8 mi East 39.1 mph 48.3 mph 0.00 in Snow Light Snow
11:01 AM 1.4 °F -26.9 °F -0.4 °F 92% 29.70 in 0.8 mi East 40.3 mph 46.0 mph 0.00 in Snow Light Snow
11:08 AM 1.4 °F -27.4 °F -0.4 °F 92% 29.70 in 0.5 mi ESE 42.6 mph 48.3 mph 0.00 in Fog , Snow Light Snow
11:19 AM 1.9 °F -24.9 °F -0.0 °F 91% 29.70 in 0.5 mi East 35.7 mph 41.4 mph 0.00 in Fog , Snow Light Snow
12:01 PM 3.0 °F -22.4 °F -0.0 °F 87% 29.71 in 0.5 mi East 32.2 mph 42.6 mph 0.00 in Fog , Snow Light Snow
12:23 PM 3.2 °F -22.9 °F -0.4 °F 85% 29.71 in 0.5 mi East 34.5 mph 42.6 mph 0.00 in Fog , Snow Light Snow
12:35 PM 3.2 °F -22.9 °F -0.4 °F 85% 29.71 in 0.5 mi East 34.5 mph 42.6 mph 0.00 in Fog , Snow Light Snow
1:01 PM 3.2 °F -22.2 °F -0.4 °F 85% 29.72 in 0.5 mi East 32.2 mph 41.4 mph 0.00 in Fog , Snow Light Snow
1:07 PM 3.2 °F -22.5 °F -0.4 °F 85% 29.72 in 0.5 mi East 33.4 mph 39.1 mph 0.00 in Fog , Snow Light Snow
1:13 PM 3.0 °F -23.1 °F -0.0 °F 87% 29.71 in 0.5 mi East 34.5 mph 40.3 mph 0.00 in Fog , Snow Light Snow
2:01 PM 1.9 °F -23.9 °F -0.0 °F 91% 29.72 in 0.5 mi East 32.2 mph - 0.00 in Fog , Snow Light Snow
2:20 PM 1.4 °F -24.6 °F -0.4 °F 92% 29.72 in 0.8 mi East 32.2 mph - 0.00 in Snow Light Snow
2:46 PM 1.4 °F -23.9 °F -0.4 °F 92% 29.72 in 1.0 mi East 29.9 mph - 0.00 in Snow Light Snow
2:54 PM 1.4 °F -23.2 °F -0.4 °F 92% 29.72 in 1.5 mi East 27.6 mph 34.5 mph 0.00 in Snow Light Snow
3:01 PM 1.9 °F -23.6 °F -0.9 °F 88% 29.72 in 1.8 mi East 31.1 mph - 0.00 in Snow Light Snow
4:01 PM 1.4 °F -23.2 °F -0.4 °F 92% 29.73 in 2.0 mi East 27.6 mph - 0.00 in Snow Light Snow
4:07 PM 1.9 °F -23.6 °F -0.9 °F 88% 29.73 in 2.0 mi East 31.1 mph - 0.00 in Snow Light Snow
4:53 PM 1.4 °F -24.3 °F -0.4 °F 92% 29.73 in 1.8 mi East 31.1 mph - 0.00 in Snow Light Snow
5:01 PM 1.9 °F -24.3 °F -0.9 °F 88% 29.73 in 1.5 mi East 33.4 mph - 0.00 in Snow Light Snow
5:52 PM 1.4 °F -23.2 °F -0.4 °F 92% 29.74 in 1.8 mi East 27.6 mph 33.4 mph 0.00 in Snow Light Snow
6:01 PM 1.4 °F -23.5 °F -0.4 °F 92% 29.74 in 2.0 mi East 28.8 mph - 0.00 in Snow Light Snow
6:20 PM 3.2 °F -21.1 °F -0.4 °F 85% 29.74 in 1.8 mi East 28.8 mph 35.7 mph 0.00 in Snow Light Snow
6:33 PM 3.2 °F -21.1 °F -0.4 °F 85% 29.75 in 2.0 mi East 28.8 mph - 0.00 in Snow Light Snow
7:01 PM 3.2 °F -19.9 °F -0.4 °F 85% 29.75 in 3.0 mi East 25.3 mph - 0.00 in Snow Light Snow
8:01 PM 3.0 °F -21.0 °F -0.0 °F 87% 29.77 in 4.0 mi East 27.6 mph - 0.00 in Snow Light Snow
9:01 PM 1.0 °F -23.6 °F -2.0 °F 87% 29.78 in 3.0 mi East 27.6 mph 32.2 mph 0.00 in Snow Light Snow
10:01 PM 1.0 °F -23.6 °F -2.0 °F 87% 29.80 in 3.0 mi East 27.6 mph - 0.00 in Snow Light Snow
11:01 PM 1.0 °F -22.8 °F -2.0 °F 87% 29.82 in 4.0 mi East 25.3 mph - 0.00 in Snow Light Snow